Showing default

COSMOS 2093, 20738

Orbit data source: Space-Track

COSMOS 2093, 20738 is a payload satellite owned by UNKS (CIS) in LEO that was launched on Wed, 08 Aug 1990 UTC via a TSIKLON-3 launch vehicle from the Plesetsk Missile And Space Complex (PKMTR). Payload-class satellites include a variety of spacecraft equipped with specific instruments for various scientific and technological missions. These include communications satellites like Starlink; space stations such as the ISS; scientific satellites like the Hubble; Earth observation satellites from companies like Planet Labs, Umbra, and HawkEye 360; GPS; miniature CubeSats for education and research; and military/defense satellites.

Loading next visibility...
Identifier
20738, 1990-070D
Orbit
LEO
Country
Flag of CISCIS
Related business
Manufacturer
NPO PM
Mission
Defense Communications
Bus & Motor
STRELA-3, Unknown motor
Mass
225 kg wet, 225 kg dry
Launch date (UTC)
1990-08-08 (36 years ago)
Launch vehicle
TSIKLON-3
Launch site
Plesetsk Missile And Space Complex (PKMTR)
Object type
Payload
Rocket body
Debris
Shape & HBR
Cyl, 0.8 m
Radar Cross Section
1.257 m², Large (>1 m²)

Expand to show TLE details & history
Last TLE update: 10 hours ago

TLE from 10 hours ago
0 COSMOS 2093
1 20738U 90070D   26126.51898882  .00000023  00000-0  68562-4 0  9998
2 20738  82.5743 327.5973 0008459 196.7841 190.9502 12.64093562649114
Epoch: 2026-05-06T12:27Z
TLE epoch observation values (Epoch: 2026-05-06T12:27:20.634Z)
Latitude
27.5007°
Longitude
-79.74576°
Altitude
1,415.79 km
Speed
7.152 km/s
True Right ascension
22h 05m 52s
True Declination
27° 22' 19"
Sunlit
Object was in daylight at epoch
Visualization orbit readout
Latitude
Unknown
Longitude
Unknown
Altitude
Unknown
Speed
Unknown
Apparent Right ascension
Unknown
Apparent Declination
Unknown
Sunlit
N/A
Visualization observer readout
Local Sidereal Time
06:09:53
Azimuth
Unknown
Elevation
Unknown
Doppler factor
Unknown
Orbital elements
Apogee altitude
1,409.994 km
Perigee altitude
1,396.83 km
Semi-major axis
7,781.549 km
Eccentricity
0.00085
Inclination
82.5743°
RAAN
327.5973°
Arg. of periapsis
196.7841°
True anomaly
190.93181°
Mean anomaly
190.9502°
Eccentric anomaly
190.941°
Mean motion
3.16187 °/min
Orbital period
113.86 mins
BSTAR
0.000068562
Loading maneuver chart data...
Computing Atmospheric mass density...
Loading historical data...
Loading historical data...
Loading historical data...
Loading historical data...
Loading historical data...
Loading historical data...
Loading historical data...

Documentation

Showing up to 5 results
|